パンスターズ彗星

P/2011 W1 ( PanSTARRS )

English version
Home page
Updated on March 24, 2012

---------------------------------------------------------------------

・ プロフィール

発見日 2011年11月26日
発見光度 20.1等
発見者 Pan-STARRS 1 telescope (Haleakala)

・ 写真集

・ 軌道要素

Epoch 2012 Feb. 3.0 TT = JDT 2455960.5
T 2012 Jan. 22.49437 TT                                 MPC
q   3.3120606            (2000.0)            P               Q
n   0.09813114     Peri.  282.45620     +0.09784311     -0.99499769
a   4.6551263      Node   161.89203     +0.93641992     +0.08518709
e   0.2885133      Incl.    3.71853     +0.33696360     +0.05218005
P  10.0
From 155 observations 2011 Nov. 23-2012 Mar. 22, mean residual 0".5.

・ 光度変化

        m1 = 11.5 + 5 logΔ + 10.0 log r

---------------------------------------------------------------------

軌道要素はM.P.E.C. 2012-F59に掲載されたものです。
光度グラフはComet for Windowsで作成したものです。

---------------------------------------------------------------------

Copyright(C) Seiichi Yoshida (comet@aerith.net). All rights reserved.